Página principal
METAR-TAF:

METAR-TAF

Aeroportos :

Cleburne Municipal Airport

Cleburne, Texas, Estados Unidos

latitude: 32-21-13N, longitude: 097-26-01W, altura: 260 m

Observação actual do tempo

O boletim foi feito há 26 minutos, às 16:55 UTC
Vento 7 kt de noroeste com rajadas de 13 kt
Temperatura 16°C
Humidade 59%
Pressão 1026 hPa
Visibilidade: 16.1 km
Nuvens dispersasa uma altura de 6000 ft
Nuvens fragmentadasa uma altura de 7500 ft

METAR: KCPT 201655Z AUTO 31007G13KT 10SM SCT060 BKN075 16/08 A3030 RMK AO2

Hora: 12:21 (17:21 UTC)


TAF: em falta

Observações e previsões do tempo de mais de 4000 aeroportos (mensagens METAR e TAF).

As estações disponíveis são os pontos amarelos e vermelhos sobre o mapa.

Mova o rato sobre o mapa para ver o nome da estação.

Depois clique no ponto para visualizar as observações e previsões meteorológicas.

Para alterar o mapa : clique nos botões verdes com uma cruz preta para aumentar o zoom; no botão verde com uma pitada de zoom; ou nas setas verdes para mapas adjacentes.


METAR-TAF: